Tracking 29059 objects as of 19-Jun-2024
HD Live streaming from Space Station
objects crossing your sky now

STARLINK-5514

Track STARLINK-5514 now!
10-day predictions
STARLINK-5514 is classified as:


NORAD ID: 57248
Int'l Code: 2023-094AG
Perigee: 565.2 km
Apogee: 567.2 km
Inclination: 43.0 °
Period: 95.8 minutes
Semi major axis: 6937 km
RCS: Unknown
Launch date: July 7, 2023
Source: United States (US)
Launch site: AIR FORCE WESTERN TEST RANGE (AFWTR)
Your satellite tracking list
Your tracking list is empty




NASA's NSSDC Master Catalog

Two Line Element Set (TLE):
1 57248U 23094AG  24170.78833952  .00000762  00000-0  71436-4 0  9993
2 57248  43.0027 194.8771 0001471 270.9305  89.1369 15.02541167 52667
Source of the keplerian elements: AFSPC